Theta_e
353 354 353 353 355 355 355 357 357 356 358 358 359 357 356 355 355 356 358 361 363 364 364 362 361 361 360 359 359 358 357 357 356 356 357 357 356 355 354 353 354 354 354 353 354 356 357 356 357 358 359 359 357 358 360 362 363 362 364 363 362 363 360
350 352 353 352 352 354 356 358 357 357 357 358 359 358 356 356 355 356 358 361 362 363 364 364 363 363 362 360 360 359 359 357 357 357 356 356 356 355 354 354 354 353 354 353 353 355 357 356 356 358 359 358 357 357 358 359 361 361 363 364 361 363 364
347 350 351 349 350 352 356 358 358 357 357 357 357 358 356 356 357 357 358 361 362 362 365 365 364 364 364 362 361 361 360 358 357 356 355 355 355 355 354 354 354 353 353 353 353 355 356 356 356 356 357 357 356 356 356 357 358 359 362 364 361 360 364
345 347 348 349 351 353 355 357 356 356 356 357 357 357 357 357 357 357 358 360 362 363 364 364 364 363 362 364 363 362 362 360 357 356 354 352 353 354 353 353 355 353 352 353 352 353 354 354 355 355 356 357 356 355 356 356 357 357 359 361 360 357 361
343 346 347 349 351 351 353 356 358 358 357 357 357 356 356 357 357 357 358 357 358 361 359 360 363 362 361 363 364 363 363 362 359 356 354 351 351 352 352 352 354 352 351 352 351 352 352 353 354 355 356 356 356 355 355 356 356 357 357 359 359 357 359
340 341 344 346 349 349 351 353 356 359 358 357 357 355 354 354 355 356 355 355 355 355 353 354 359 360 360 361 361 362 363 364 362 358 355 353 350 351 352 351 353 352 350 351 351 351 352 353 353 354 355 355 355 354 354 355 355 355 357 357 358 357 356
337 338 341 343 344 345 347 350 353 357 357 356 357 356 354 353 353 354 353 354 355 355 354 356 359 359 360 361 360 360 362 363 364 360 357 354 351 351 351 351 351 351 350 350 351 351 352 354 354 354 354 353 353 352 352 353 354 354 355 356 357 358 357
336 337 338 339 340 341 344 348 348 352 354 354 355 356 354 353 353 352 352 352 354 356 356 357 358 357 358 361 362 362 361 361 363 362 358 354 352 352 351 351 351 352 350 349 350 351 352 353 354 353 353 353 352 352 351 352 354 354 353 354 356 357 356
335 336 335 336 337 339 343 345 344 345 347 347 348 350 352 354 353 352 352 353 354 356 355 356 357 356 357 359 362 362 360 359 360 361 359 355 352 352 349 350 351 351 351 350 349 350 352 352 353 352 352 354 353 353 351 352 355 355 353 353 355 356 355
335 334 334 333 335 339 342 341 341 342 342 342 343 342 345 350 353 354 353 353 354 354 354 355 355 356 357 357 360 361 359 359 360 360 359 355 351 351 348 348 348 350 351 350 348 348 350 351 351 352 352 354 354 354 353 353 355 356 354 354 354 356 356
333 334 333 333 333 334 337 338 339 340 339 340 340 340 341 344 349 353 353 352 353 352 352 353 353 355 355 355 358 358 357 358 359 358 358 355 351 350 349 347 347 347 350 349 346 345 347 350 351 351 352 354 354 354 355 356 356 356 355 354 353 355 355
332 333 332 332 332 331 332 334 337 337 337 337 337 338 339 340 342 347 350 352 353 351 351 353 354 354 354 355 357 357 355 356 357 358 357 355 352 351 349 347 346 346 348 348 346 344 345 348 350 351 352 354 355 355 355 356 356 357 356 354 352 353 353
330 331 330 330 331 330 330 332 334 335 334 334 335 336 337 338 338 340 344 348 350 352 351 353 354 353 353 355 355 354 353 354 356 358 357 356 354 352 351 348 346 346 346 347 347 345 344 344 348 351 351 352 354 355 355 356 356 356 357 356 351 350 352
330 329 328 329 329 329 330 329 331 332 332 332 333 333 334 335 336 337 339 341 344 348 350 351 352 352 353 354 353 354 354 355 355 357 357 355 354 354 353 351 348 347 346 346 345 346 345 343 345 350 352 352 353 354 353 353 355 356 357 357 355 351 350
329 327 327 327 327 327 327 327 328 329 330 329 330 331 331 331 333 335 335 337 340 342 344 347 350 351 352 352 352 353 354 355 356 355 356 356 356 357 357 354 352 349 347 346 346 346 344 343 342 346 349 351 352 353 352 351 352 355 356 357 356 353 350
326 325 325 325 325 325 326 326 326 327 327 328 328 329 329 329 329 331 332 334 336 338 339 343 347 350 351 352 353 353 353 355 355 355 356 357 359 358 358 356 355 352 350 349 348 347 346 346 343 344 346 349 350 351 350 348 347 350 353 354 356 355 351
324 324 324 324 324 324 324 325 325 325 325 326 325 327 328 327 327 328 330 332 333 335 337 340 345 349 350 351 352 353 353 354 355 355 355 357 358 360 360 358 358 356 354 353 351 350 350 349 348 346 344 346 348 348 348 346 344 346 348 351 352 353 353
324 324 323 323 323 323 323 324 324 324 324 324 323 325 325 325 325 326 327 330 331 333 335 339 343 348 350 351 353 354 354 354 356 356 357 358 358 358 358 356 357 357 356 355 355 354 353 352 352 351 349 347 346 347 347 345 343 343 344 347 348 350 350
323 323 323 322 323 323 323 323 324 323 323 323 323 323 322 322 322 324 325 327 330 332 333 337 341 345 348 349 352 353 353 353 354 354 356 357 357 357 356 353 352 354 355 356 356 356 356 356 355 355 354 352 349 348 346 345 344 344 343 344 345 345 345
322 322 322 321 322 323 323 323 323 322 322 323 322 322 321 320 321 322 323 325 328 331 332 334 338 341 342 343 346 349 350 351 351 351 354 356 354 355 356 355 353 351 352 353 355 356 358 357 356 357 356 355 354 352 351 348 346 346 345 344 345 345 344
322 322 321 321 321 322 322 322 322 321 322 322 322 323 322 320 320 321 321 323 326 328 330 332 335 337 338 339 342 344 345 348 349 349 352 353 352 352 353 353 352 352 351 351 352 355 357 357 357 357 358 358 357 355 354 352 350 349 348 348 347 346 346
322 320 320 321 320 321 322 321 320 320 321 321 322 322 322 322 321 320 320 322 324 326 328 331 333 335 336 335 337 339 340 343 345 347 350 350 351 353 353 353 353 352 352 353 352 352 353 354 354 356 357 358 358 357 356 354 353 352 351 351 350 348 348
320 320 320 320 320 320 320 320 319 319 320 320 320 321 321 321 321 321 321 321 321 322 325 329 331 334 335 334 334 335 337 340 343 346 347 348 349 351 352 352 353 352 352 353 353 353 352 352 353 353 356 358 358 358 358 357 355 354 352 353 352 350 350
320 320 319 319 318 318 318 319 318 318 319 319 319 320 320 320 321 321 321 321 320 320 323 325 328 331 332 332 332 333 334 337 341 344 345 346 348 349 349 350 351 353 353 353 353 354 354 354 354 353 354 357 358 358 359 358 358 357 355 354 353 352 351
319 318 318 318 317 317 317 317 318 318 319 318 319 319 319 319 320 321 321 322 321 319 320 323 325 327 328 331 332 332 333 334 336 341 343 344 344 347 348 348 349 351 353 353 353 353 353 353 354 353 353 354 356 358 358 358 359 358 357 356 355 353 352
317 317 317 316 316 316 316 316 317 317 317 317 318 318 318 319 320 320 322 323 322 321 321 321 322 324 325 328 330 332 332 332 334 338 341 342 341 344 347 347 347 348 350 351 353 354 354 354 355 356 355 354 355 357 357 357 357 358 358 357 356 355 353
315 316 315 314 315 315 315 315 315 316 316 316 317 317 317 318 319 320 322 322 323 322 322 321 321 322 323 325 328 330 332 333 333 336 339 341 341 341 343 345 347 348 348 349 351 352 355 356 356 357 357 357 356 357 357 355 356 357 359 357 356 356 354
315 315 315 315 314 314 314 314 314 315 315 315 315 316 317 317 318 320 321 322 323 323 322 322 322 322 322 323 325 328 330 333 334 335 337 340 341 342 341 342 346 348 348 348 351 352 353 355 356 357 358 358 357 358 359 358 356 356 358 357 357 357 355
315 315 315 314 313 313 314 313 314 314 315 315 315 316 316 317 318 320 321 322 323 323 323 323 323 323 322 323 324 326 328 331 333 335 335 337 339 341 342 343 345 347 347 348 350 352 354 355 356 356 358 359 359 357 359 359 358 357 358 357 357 356 355
316 315 315 314 314 313 313 313 314 314 314 314 315 315 316 317 318 319 321 322 323 323 323 324 323 323 323 323 323 324 325 327 330 331 333 334 336 338 340 343 344 345 347 349 351 351 353 354 355 355 356 358 359 358 357 357 358 359 359 359 358 357 356
315 315 315 315 314 314 314 314 314 314 314 314 315 315 316 317 318 319 320 321 322 322 323 324 323 323 323 323 324 324 324 326 327 329 331 332 334 336 338 340 342 343 346 349 350 351 352 352 354 355 356 358 359 358 356 355 355 357 359 360 360 359 357
315 316 316 315 315 315 315 314 314 314 314 315 315 316 316 317 318 319 320 321 321 322 322 323 324 324 323 323 324 325 326 326 327 328 329 330 332 335 337 338 340 342 343 346 348 350 351 351 354 354 356 358 358 354 352 353 354 356 358 360 360 360 358
315 315 315 315 315 315 315 315 315 316 316 316 316 317 317 317 318 319 320 320 320 320 321 321 322 323 323 323 323 324 326 327 328 328 329 329 331 333 334 336 339 342 344 345 346 348 349 351 353 355 357 358 356 353 353 354 354 354 356 359 360 359 357
315 314 314 314 314 314 314 315 315 316 316 316 316 317 317 317 318 318 319 320 320 320 321 321 321 322 323 323 323 322 323 324 326 327 328 328 327 328 330 335 337 340 343 344 346 347 349 349 350 353 356 358 355 353 353 352 353 353 354 358 360 357 357
314 313 313 313 313 313 314 314 314 315 315 315 316 316 316 317 317 317 318 319 319 320 320 321 321 322 322 323 323 323 323 323 324 326 326 327 327 327 330 334 336 337 339 339 340 342 343 345 345 346 349 351 353 354 354 354 355 355 356 357 358 356 355
312 312 312 312 312 313 313 313 314 314 314 315 315 315 316 316 316 317 317 318 319 319 320 321 321 321 322 323 324 324 324 323 323 324 326 327 328 328 328 329 332 334 335 335 335 335 336 337 339 339 340 342 344 346 349 350 354 356 356 355 356 355 354
311 311 311 311 311 312 312 312 312 313 314 314 314 314 315 315 315 316 316 317 318 318 320 320 321 321 322 322 323 323 323 323 323 324 326 328 329 328 327 328 329 332 334 335 334 334 334 335 336 337 339 341 341 342 342 344 346 348 350 351 352 353 352
310 310 310 310 311 311 311 312 312 312 313 313 313 314 314 314 315 315 315 316 316 317 318 319 320 320 321 321 323 323 323 323 323 324 326 328 328 328 329 329 331 332 334 335 335 336 337 337 338 340 342 343 343 343 343 344 344 345 345 346 347 348 349
Wind_Speed
7 10 10 8 9 10 10 13 15 14 11 11 15 19 21 22 20 17 19 21 22 22 22 22 22 22 21 21 19 19 18 17 16 16 15 14 13 13 13 13 13 13 12 11 11 11 10 9 10 9 9 9 9 8 8 7 7 6 6 7 6 5 5
5 7 8 8 8 8 9 12 13 12 12 12 13 16 18 20 19 19 20 22 22 22 22 22 22 22 22 21 20 19 19 18 17 16 16 15 14 13 13 13 13 13 12 11 10 11 11 11 11 10 10 10 10 10 9 9 9 8 7 8 8 7 7
4 4 6 6 7 9 9 9 8 9 11 12 12 14 17 18 17 18 21 23 22 21 21 21 21 21 21 21 20 20 20 19 18 18 17 16 15 15 14 14 13 14 13 12 11 10 12 12 11 11 10 10 10 11 11 10 10 9 9 8 9 9 8
4 3 3 5 7 8 8 10 13 13 14 12 12 14 16 17 17 15 16 19 21 21 21 20 20 21 21 21 21 20 20 20 19 18 17 16 16 15 15 14 14 14 14 14 12 11 11 12 12 12 11 11 11 11 11 11 11 11 10 10 10 9 8
6 6 3 3 6 6 3 8 14 16 15 13 12 11 11 11 14 14 13 15 16 19 21 20 19 21 22 21 20 19 20 20 19 18 17 16 17 16 16 16 15 15 14 14 14 13 12 12 12 13 12 12 11 11 12 12 11 11 11 11 10 10 8
9 9 7 5 6 7 7 2 6 12 14 12 11 12 11 9 10 13 15 17 17 19 22 22 22 23 23 21 20 19 19 20 20 19 17 17 17 17 17 17 16 16 16 15 15 14 14 14 13 13 13 13 13 12 13 12 12 12 11 11 11 10 9
10 10 10 9 7 7 9 10 7 6 10 9 7 11 16 15 11 12 15 17 21 22 22 23 23 22 21 20 18 18 19 20 20 20 19 18 18 18 18 17 17 17 16 16 16 15 15 15 15 14 14 14 13 13 13 13 13 12 12 12 12 11 10
11 10 10 9 8 7 8 10 12 11 7 5 4 6 14 18 15 15 19 21 21 22 20 20 20 19 16 15 15 16 17 18 19 20 20 19 19 19 18 18 19 18 17 17 17 17 16 16 16 16 15 14 14 14 14 13 13 13 12 12 12 12 11
11 11 10 9 8 7 8 9 12 15 15 14 13 12 2 11 15 14 20 22 16 15 17 17 17 16 15 15 14 14 15 16 17 18 20 20 20 20 20 19 19 19 19 19 18 18 18 17 17 17 17 16 15 15 14 14 14 14 13 13 13 13 12
11 11 11 10 9 9 10 13 15 16 17 17 18 21 18 2 9 6 8 13 11 11 13 13 14 15 15 15 14 15 16 16 17 18 19 20 20 20 20 20 20 20 20 20 19 19 19 18 17 17 18 18 17 16 16 15 15 14 14 14 13 13 13
10 10 11 12 12 12 13 15 16 16 16 17 16 17 18 10 3 6 6 6 9 12 14 13 12 12 13 15 15 15 17 17 18 18 19 20 21 21 21 20 20 20 20 20 20 19 19 19 19 18 18 19 18 18 18 17 16 16 16 15 14 14 14
9 10 11 12 13 13 13 14 16 17 17 17 16 15 14 13 12 11 10 7 2 7 12 12 11 10 12 15 15 15 17 17 19 19 19 21 21 21 21 21 21 21 21 20 20 20 20 20 20 20 20 20 19 19 19 18 18 18 17 17 16 15 15
10 10 11 12 12 12 13 13 15 18 18 17 17 16 15 14 16 17 15 13 8 3 3 5 8 9 12 14 13 15 17 17 17 17 18 20 22 21 21 21 21 21 21 21 21 21 21 21 21 21 21 21 21 20 20 20 19 19 19 18 17 17 16
12 12 12 12 12 13 13 13 14 16 17 18 17 17 17 16 16 17 17 16 13 10 9 7 4 5 9 13 12 13 15 16 18 18 18 21 23 22 20 20 21 21 21 21 21 21 22 22 22 21 21 21 22 21 21 20 20 20 20 20 19 18 18
12 12 13 13 13 13 13 13 14 15 17 17 18 18 17 17 17 17 16 16 14 13 13 11 9 9 8 10 14 14 13 14 17 18 19 21 21 20 19 20 20 21 21 22 22 22 22 22 22 22 22 22 22 22 21 21 21 21 21 21 20 20 19
11 12 12 13 12 12 12 12 14 15 16 16 17 17 17 16 17 16 15 15 13 13 13 12 8 8 10 9 10 13 13 13 14 14 15 17 18 18 19 20 20 21 21 22 22 22 21 21 22 22 22 22 22 22 22 22 22 23 24 23 21 20 20
11 11 12 12 12 11 11 12 14 14 14 15 16 16 16 15 15 15 15 15 13 12 12 11 9 6 8 10 11 11 12 13 14 14 15 15 15 16 17 19 20 21 21 21 21 21 21 21 21 22 22 22 22 23 23 23 23 24 26 26 25 22 20
10 10 11 11 11 11 11 12 13 15 15 15 15 15 15 14 14 14 14 14 14 14 13 11 10 9 6 7 10 11 11 11 11 12 14 14 14 14 14 16 17 18 20 22 22 22 22 22 22 22 22 22 23 23 23 23 24 25 27 28 29 28 24
9 10 10 10 10 11 11 12 13 15 15 15 15 15 14 14 14 13 13 13 12 12 13 12 11 11 10 8 9 11 11 10 10 11 12 13 15 14 13 15 17 19 20 21 21 22 22 22 22 22 23 23 23 23 23 23 24 25 27 28 30 31 30
8 9 9 9 10 10 11 12 12 14 15 14 14 14 13 14 14 12 12 12 10 11 12 13 11 11 12 12 12 12 12 12 11 10 11 13 15 16 16 17 18 20 23 23 20 20 22 23 23 22 23 23 23 23 23 24 24 25 28 30 31 32 33
7 8 8 8 9 9 10 11 12 14 13 13 13 12 13 14 14 13 13 12 11 11 11 11 10 10 12 13 13 12 13 13 12 12 12 10 10 13 16 18 18 18 20 23 24 21 19 20 22 22 22 23 23 23 24 25 25 25 26 28 31 32 33
6 7 7 8 8 9 9 9 11 13 13 12 12 11 12 14 14 14 14 13 12 12 11 10 9 9 11 13 14 15 15 14 13 13 14 13 10 10 12 15 16 17 17 19 24 26 22 17 17 19 21 21 23 23 24 26 26 27 28 28 29 30 31
6 6 6 7 8 8 8 9 11 12 12 11 11 11 12 13 14 14 13 13 14 13 12 11 10 9 10 13 14 15 16 16 15 12 12 13 12 11 11 12 14 17 18 18 22 24 23 20 19 20 21 22 24 24 24 25 26 27 29 30 29 29 30
5 5 6 6 7 8 8 10 12 12 11 11 11 11 13 14 13 13 12 13 14 14 13 12 12 11 11 13 14 14 14 14 14 12 12 12 12 12 12 12 11 13 16 20 24 25 24 25 26 25 23 23 24 25 25 25 25 27 29 30 31 31 31
5 6 6 6 7 8 9 10 11 11 10 11 11 12 13 13 12 12 12 12 13 13 13 12 12 13 13 13 13 13 13 14 14 13 12 13 14 13 12 13 12 12 13 18 22 24 23 24 26 28 28 25 24 25 26 26 25 26 28 30 31 32 33
7 8 8 8 9 10 10 10 10 10 11 11 12 13 13 13 12 12 12 12 13 13 12 12 12 12 13 13 13 14 14 14 14 13 13 14 16 15 15 17 18 17 16 17 18 19 20 21 23 25 27 27 25 25 26 27 27 27 28 30 31 32 34
6 8 10 11 13 14 13 11 10 11 12 12 12 13 13 12 12 12 12 13 13 13 13 14 13 13 13 13 14 14 14 13 12 11 10 11 13 15 16 18 20 19 17 17 17 18 19 20 20 22 23 25 25 25 26 27 28 27 27 29 30 30 32
5 7 8 9 11 12 13 14 14 14 14 13 13 13 13 13 13 13 13 13 14 14 15 15 14 14 14 13 13 13 13 13 12 10 8 7 9 12 15 17 18 18 18 17 17 19 20 20 20 23 24 24 25 25 25 26 27 27 26 28 30 30 31
5 6 7 8 10 10 11 13 15 16 16 15 15 14 14 14 15 14 14 14 15 15 16 15 15 15 15 15 14 13 13 13 12 12 10 9 9 11 14 16 15 17 19 19 17 18 20 20 20 22 25 26 26 24 23 24 25 25 24 25 27 29 30
5 6 7 9 10 11 12 13 14 16 17 17 16 16 15 15 15 15 16 16 16 15 15 15 15 16 16 16 15 14 14 14 13 13 13 12 12 12 14 15 14 15 18 18 17 18 19 19 19 20 23 27 27 25 24 23 23 23 22 23 25 27 29
7 7 8 8 9 10 11 13 14 16 18 18 18 17 17 16 16 17 18 17 16 15 15 15 16 16 16 16 16 16 16 15 15 15 14 14 14 13 14 14 14 15 15 16 17 18 18 19 19 19 22 24 24 23 20 17 16 16 16 17 19 23 27
8 8 8 8 9 9 11 13 14 15 17 18 18 18 17 16 17 18 18 18 17 17 17 17 17 17 17 17 17 17 17 17 16 16 15 15 15 14 15 16 15 15 16 16 16 17 17 18 19 20 20 18 17 19 20 18 17 18 19 19 18 18 21
10 10 11 11 11 11 11 12 13 14 16 17 17 17 17 17 17 18 18 18 19 19 19 18 18 18 18 18 18 17 17 17 16 16 15 15 15 15 16 16 16 16 16 16 16 16 17 18 19 19 17 14 14 19 22 22 23 24 22 20 19 18 20
11 12 13 14 14 14 13 12 12 13 15 16 17 17 18 19 19 19 20 20 19 20 20 20 20 20 20 19 19 18 18 18 17 17 16 16 17 17 16 16 15 15 15 15 15 15 15 15 15 14 14 13 15 18 21 22 24 24 21 18 16 15 15
11 13 15 16 16 16 15 15 15 15 16 16 16 17 18 19 20 21 21 21 20 19 20 20 20 21 21 20 20 19 18 18 18 18 18 17 17 17 16 16 16 17 18 18 17 17 18 18 19 18 16 15 15 15 16 16 16 17 17 17 14 10 9
12 14 15 16 16 17 17 18 18 18 17 17 16 17 18 19 20 21 21 21 20 20 20 21 21 21 21 20 20 19 18 18 18 18 18 17 17 17 17 19 19 20 22 23 23 23 24 26 27 26 24 25 26 24 21 20 19 18 17 16 16 16 19
13 14 15 16 17 18 19 20 20 20 20 19 18 18 18 18 19 19 20 20 20 20 21 21 21 21 21 20 20 19 19 19 19 19 18 18 18 18 19 21 21 22 23 25 26 26 25 26 28 26 24 26 30 32 30 29 30 29 27 27 28 28 31
14 15 16 17 17 18 19 20 20 21 21 20 19 19 19 19 19 19 19 20 20 21 22 22 22 23 22 21 21 20 20 20 20 19 19 19 19 19 19 20 21 21 22 22 22 22 21 22 23 23 21 23 27 31 32 31 30 30 30 31 31 31 32
Wind_Direction
142 162 171 174 182 185 183 189 194 196 193 189 197 197 191 188 181 177 184 187 187 187 184 184 186 187 189 190 192 192 193 196 196 198 200 200 203 201 200 200 200 204 204 200 201 199 195 190 188 189 186 189 195 197 198 198 200 203 204 214 221 209 204
105 138 160 174 180 179 182 193 196 194 192 193 200 203 198 190 182 181 185 185 187 190 187 186 187 188 190 191 192 192 193 195 196 197 200 200 201 203 204 202 202 206 208 207 202 197 196 193 192 193 191 193 198 199 201 202 204 208 210 214 219 217 213
40 99 145 169 181 180 179 189 204 211 207 197 194 206 206 196 189 187 182 180 185 190 189 187 188 191 192 191 191 192 193 194 196 198 200 201 201 202 203 203 205 206 207 209 206 198 196 195 195 197 197 200 201 201 204 206 206 210 215 218 222 219 213
30 48 122 154 161 164 168 185 197 200 202 199 195 209 210 196 194 195 184 180 184 188 188 188 190 195 196 193 191 192 193 195 196 198 201 202 201 202 202 201 204 207 206 207 208 204 200 198 198 200 201 204 206 205 205 208 208 210 215 220 227 228 219
45 41 56 127 121 105 116 193 191 178 176 185 190 208 223 208 201 203 193 186 186 188 190 191 194 199 200 196 192 192 194 195 197 198 200 202 201 201 202 202 202 206 208 207 207 207 206 205 203 202 204 206 209 210 208 209 211 211 214 218 226 231 226
39 35 31 48 84 72 43 45 176 168 169 174 173 187 209 215 209 207 204 198 194 195 196 196 199 202 201 200 196 193 192 194 197 198 198 199 200 200 202 203 203 205 207 208 208 207 206 210 209 205 206 208 210 211 210 210 212 211 212 216 222 228 230
40 35 32 34 50 55 41 41 64 135 173 181 169 182 197 200 201 217 224 213 199 196 196 195 197 201 201 201 201 197 195 195 195 197 198 198 199 201 201 202 203 205 206 207 208 209 207 208 210 210 211 212 212 213 212 210 212 212 211 214 219 224 228
49 45 41 38 43 46 42 45 57 71 96 129 130 179 203 198 188 202 223 221 203 194 194 192 195 202 203 201 204 205 204 201 197 198 201 200 199 202 201 201 203 204 205 206 207 209 210 208 209 210 212 214 216 217 215 210 211 215 214 215 218 221 225
59 57 53 49 49 51 53 50 52 56 55 57 61 51 40 204 194 199 221 224 207 191 194 190 190 199 201 201 206 209 212 213 208 204 205 204 202 203 203 203 203 203 205 207 207 206 209 211 210 209 210 214 216 218 218 213 211 216 218 218 219 220 224
57 58 57 56 51 46 50 48 43 45 46 48 52 44 35 16 205 193 219 225 210 194 198 194 190 193 195 200 204 206 213 219 217 212 211 211 208 205 206 204 203 203 205 208 209 207 207 209 212 210 208 211 215 215 217 216 213 216 218 219 221 222 224
64 59 55 55 52 43 41 43 41 41 42 45 52 50 41 36 89 103 118 185 203 200 198 197 198 195 195 203 207 208 213 218 219 217 215 217 215 208 207 207 204 204 205 208 211 210 207 207 210 212 210 211 213 213 215 216 215 216 218 219 221 222 224
70 63 55 51 51 48 42 41 40 40 41 42 44 47 44 38 38 53 78 92 129 209 202 197 199 198 202 209 211 215 219 218 219 220 217 221 222 213 209 210 208 205 205 207 211 212 210 207 207 210 211 211 213 214 214 215 216 217 219 221 221 222 224
75 67 60 53 48 48 46 42 39 39 40 41 41 40 38 35 31 33 46 59 50 351 267 210 200 204 212 215 214 219 223 221 220 220 217 222 226 221 215 213 211 209 207 206 209 212 213 210 207 209 211 212 212 214 215 216 217 219 219 221 222 222 224
82 73 68 61 52 47 44 41 38 36 36 38 39 39 35 32 30 29 32 37 36 23 5 347 319 273 235 223 223 229 227 224 224 223 221 223 225 223 220 218 216 215 211 207 208 212 215 214 210 209 210 212 212 214 216 216 218 219 219 220 221 221 223
78 71 66 61 56 52 46 42 37 32 31 32 33 35 36 30 27 28 29 27 25 22 11 356 338 321 288 240 228 232 235 233 230 226 223 223 223 221 221 223 221 219 217 213 211 212 215 217 215 211 211 212 212 214 216 217 219 219 218 218 219 220 222
73 69 63 57 55 54 52 48 41 34 31 30 29 31 32 29 25 24 26 23 18 15 8 358 342 316 305 290 256 239 239 246 249 248 240 229 223 221 222 223 223 223 222 220 216 214 215 218 219 217 214 214 214 215 216 218 221 220 218 217 217 219 222
68 65 60 54 50 48 49 49 42 36 33 30 30 29 28 27 24 21 22 19 15 12 5 357 349 319 290 293 292 272 255 253 257 260 258 248 236 230 228 228 225 224 224 225 224 220 217 219 223 223 221 219 218 218 219 222 223 221 219 218 217 218 221
67 62 57 53 46 39 39 40 36 31 28 27 28 27 25 22 20 18 16 12 10 9 5 359 352 344 318 291 296 300 291 281 271 260 256 255 252 248 247 246 242 236 228 224 223 223 221 221 223 226 228 227 225 224 223 226 227 225 222 221 221 220 221
65 59 55 50 45 39 33 31 30 25 21 21 21 21 21 20 16 14 10 7 7 8 6 3 357 351 346 333 325 327 322 313 301 285 271 262 256 251 248 251 258 259 253 239 227 222 223 224 224 226 229 231 233 232 231 230 229 227 225 225 226 226 225
53 54 52 45 42 41 31 27 27 22 16 15 13 12 14 14 10 9 6 3 6 9 6 4 360 356 352 347 342 337 333 337 338 317 290 272 265 261 250 243 248 256 264 268 255 234 225 225 225 225 228 231 235 235 236 235 233 230 228 226 228 230 231
47 44 45 40 36 33 28 24 22 17 11 8 7 6 8 7 3 3 2 360 3 7 3 359 360 0 358 352 347 342 337 340 346 339 327 313 296 283 270 261 257 253 261 277 283 272 252 237 230 226 225 228 233 235 236 237 236 235 233 230 229 231 232
53 39 32 31 30 25 21 18 15 10 3 358 1 4 5 2 357 356 356 356 360 1 354 350 355 2 1 353 348 347 345 342 342 344 345 342 330 306 287 277 274 267 261 270 281 283 281 277 262 247 237 232 231 233 236 237 236 236 236 235 234 232 231
66 49 30 22 18 14 15 14 6 359 353 350 354 1 1 355 351 350 350 352 355 353 348 347 352 1 2 353 344 343 344 341 341 344 345 338 327 316 306 291 276 269 260 255 261 262 261 261 256 249 247 243 235 231 235 237 236 235 235 235 234 232 230
59 47 31 14 4 1 8 6 353 346 345 343 347 355 351 344 343 342 342 347 349 347 345 346 351 355 354 348 340 338 341 341 339 343 346 338 326 320 313 300 284 274 263 256 255 254 250 248 243 238 241 246 242 234 233 235 235 234 233 234 233 231 231
20 21 13 359 358 0 0 352 338 333 336 336 342 347 340 335 336 334 334 339 339 339 341 344 347 347 343 338 332 329 335 340 340 342 345 339 334 329 316 298 287 281 271 262 259 259 260 259 253 245 243 248 252 248 241 237 237 235 232 232 232 231 231
358 358 350 346 354 356 347 335 330 330 332 334 339 336 328 328 329 325 326 329 328 330 334 337 340 338 333 331 328 326 330 334 335 339 341 336 332 328 317 305 296 289 283 278 274 270 266 261 255 250 246 246 250 252 248 244 241 238 235 233 232 231 231
355 350 342 341 347 345 335 329 332 331 328 330 330 325 323 324 322 319 319 318 317 320 324 327 331 331 328 326 323 321 323 323 323 329 332 324 317 312 307 304 303 302 297 287 280 274 267 259 255 252 247 244 244 245 247 247 245 242 238 236 234 233 232
355 345 339 338 337 335 330 329 330 327 325 327 325 323 323 321 317 315 313 310 309 313 316 319 321 322 323 321 316 314 315 312 311 312 309 297 291 290 289 288 291 296 295 285 277 272 267 263 261 257 253 249 245 243 244 247 247 246 243 238 235 234 233
354 336 331 329 326 328 329 326 324 322 322 323 322 323 323 318 314 312 308 305 306 307 309 310 312 315 315 313 311 309 306 304 304 302 296 286 277 275 278 280 282 283 280 275 272 271 268 262 260 260 260 257 252 248 248 250 250 250 251 248 240 235 235
337 327 327 322 321 328 328 322 318 316 315 316 318 319 319 315 311 307 303 304 306 306 304 303 304 308 308 306 307 306 304 302 300 296 293 290 283 276 274 275 276 275 273 269 266 268 270 264 258 258 260 259 256 251 248 249 251 252 256 257 252 244 240
320 319 319 317 319 325 322 316 313 310 308 310 312 313 313 311 308 304 303 305 307 306 303 301 299 300 300 300 301 301 301 299 295 291 290 287 284 281 276 275 273 269 266 263 262 265 266 265 261 258 256 260 264 265 266 277 287 280 270 268 266 260 250
311 313 313 313 316 318 314 310 307 304 303 304 306 307 308 307 305 303 304 306 306 304 301 299 296 294 294 295 295 294 293 292 289 287 286 284 281 277 274 272 269 265 263 263 264 266 267 267 266 263 259 261 267 274 282 293 291 273 261 263 268 264 255
310 312 312 312 311 311 308 302 299 299 299 299 301 303 303 303 302 301 301 302 302 302 300 297 294 291 290 290 290 288 286 284 282 282 281 280 277 274 273 270 264 260 260 260 261 264 266 268 270 268 265 264 266 268 270 271 267 264 265 272 274 267 259
308 309 309 310 310 309 306 301 297 296 295 295 297 298 299 299 298 298 299 299 299 298 296 294 292 290 289 288 287 286 284 282 280 279 277 276 275 273 273 272 270 268 267 267 269 272 274 281 291 291 284 276 271 268 265 264 267 271 274 274 271 268 269
303 304 305 306 306 306 305 302 299 296 292 291 292 292 293 294 294 295 297 296 296 295 292 291 290 288 287 287 285 284 282 281 279 277 275 273 272 271 271 271 272 273 274 274 276 279 284 293 300 301 300 295 285 275 269 264 262 262 261 258 254 258 278
296 297 298 299 301 302 301 300 298 295 292 290 288 288 288 288 289 291 292 293 294 293 291 290 290 287 285 285 283 282 282 281 280 279 278 276 274 274 277 276 273 270 270 271 273 273 273 274 275 278 283 286 282 277 273 269 264 256 253 255 257 264 277
292 294 297 298 299 299 298 297 296 294 293 291 289 287 285 284 284 286 288 289 290 290 289 289 288 285 283 281 280 280 281 280 279 278 276 275 274 275 277 279 277 273 270 271 274 275 272 270 270 272 274 277 278 278 276 273 271 268 265 266 267 270 276
291 293 295 296 296 295 295 295 294 294 294 293 292 289 287 285 285 284 285 286 286 286 286 286 285 283 282 280 279 279 278 277 277 276 274 272 272 271 271 274 277 278 275 274 276 278 277 275 274 273 272 272 275 278 279 277 276 275 273 271 271 271 275